Delta Virtual Airport Information Service

Amsterdam Schiphol Airport

ICAO: EHAM Country: Netherlands
Latitude: 52.3086 Longitude: 4.76389
Latest Arrival : KLM571 (C) (HTDA-EHAM) Latest Departure : DLH1003 (EHAM-EDDF)


WX CaptureLIVE
Data provided by noaa.gov | Fetched at 23:01:52

METAR : EHAM 240355Z 21008KT 9999 FEW025 11/10 Q1009 NOSIG

TAF : EHAM 232323Z 2400/2506 22012KT 9999 FEW020 PROB30 TEMPO 2400/2410 6000 -RADZ -SHRA BKN012 FEW018TCU BECMG 2409/2412 20017KT BECMG 2418/2421 19022G32KT TEMPO 2503/2506 6000 RA BKN014


Runway Data for EHAM
Data provided by openaviationdata.com

Runway ID Mag Var Hdg Length Elevation Surface ILS Freq ILS Id ILS Slope
4 -1 42° 6619 ft -11 ft Asphalt -- -- --
6 -1 59° 11429 ft -11 ft Asphalt 110.55 KAG 3
9 -1 88° 11329 ft -11 ft Asphalt -- -- --
18L -1 184° 11155 ft -11 ft Asphalt -- -- --
18R -1 184° 12448 ft -11 ft Asphalt 110.1 VPB 3
18C -1 184° 10812 ft -11 ft Asphalt 109.5 SP 3
22 -1 222° 6619 ft -11 ft Asphalt 109.15 SCH 3
24 -1 239° 11429 ft -11 ft Asphalt -- -- --
27 -1 268° 11329 ft -11 ft Asphalt 111.55 0
36L -1 12448 ft -11 ft Asphalt -- -- --
36R -1 11155 ft -11 ft Asphalt 111.95 ABA 3
36C -1 10812 ft -11 ft Asphalt 108.75 SA 3

Amsterdam Schiphol Airport, Netherlands
Use only for reference purposes



Not for navigational purposes.